Location: Shenandoah County Park
(38.9356°N, 78.4524°W)
Time: 19:40:38
(UTC-05:00)

Tiros 1 despin weight - All Passes

Search period start: 03 December 2023 00:00
Search period end: 13 December 2023 00:00
Orbit: 583 x 628 km, 48.2° (Epoch: 28 November)

Date Brightness Start Highest point End Pass type
(mag) Time Alt. Az. Time Alt. Az. Time Alt. Az.
03 Dec - 01:02:06 10° WNW 01:06:28 71° SW 01:10:52 10° SE night (unlit)
03 Dec - 02:45:28 10° WSW 02:47:07 12° SW 02:48:46 10° SSW night (unlit)
03 Dec - 16:49:00 10° SSE 16:51:03 13° SE 16:53:05 10° ESE daylight
03 Dec - 18:27:22 10° SW 18:31:43 78° SE 18:36:04 10° ENE visible
03 Dec - 20:09:23 10° W 20:13:17 31° NNW 20:17:12 10° NE visible
03 Dec - 21:51:52 10° NW 21:55:27 24° N 21:59:02 10° ENE night (unlit)
03 Dec - 23:33:13 10° NW 23:37:26 46° NNE 23:41:41 10° E night (unlit)
04 Dec - 01:14:34 10° WNW 01:18:39 39° SW 01:22:46 10° SSE night (unlit)
04 Dec - 16:59:28 10° S 17:03:03 25° SE 17:06:37 10° E daylight
04 Dec - 18:39:43 10° WSW 18:44:03 63° NNW 18:48:21 10° NE visible
04 Dec - 20:22:12 10° WNW 20:25:52 26° N 20:29:33 10° NE visible
04 Dec - 22:04:19 10° NW 22:08:05 27° NNE 22:11:50 10° ENE night (unlit)
04 Dec - 23:45:28 10° NW 23:49:50 73° NNE 23:54:14 10° ESE night (unlit)
05 Dec - 01:27:26 10° W 01:30:44 21° SW 01:34:04 10° S night (unlit)
05 Dec - 17:10:58 10° SW 17:15:09 46° SE 17:19:19 10° ENE visible
05 Dec - 18:52:19 10° W 18:56:27 41° NNW 19:00:35 10° NE visible
05 Dec - 20:34:56 10° WNW 20:38:30 24° N 20:42:03 10° NE visible
05 Dec - 22:16:38 10° NW 22:20:37 34° NNE 22:24:38 10° E night (unlit)
05 Dec - 23:57:46 10° WNW 00:02:06 66° SW 00:06:28 10° SE night (unlit)
06 Dec - 01:41:44 10° WSW 01:42:42 11° SW 01:43:41 10° SW night (unlit)
06 Dec - 15:44:15 10° SSE 15:46:38 14° SE 15:48:59 10° E daylight
06 Dec - 17:22:58 10° SW 17:27:20 84° SSE 17:31:43 10° ENE visible
06 Dec - 19:05:05 10° WNW 19:08:56 30° NNW 19:12:50 10° NE visible
06 Dec - 20:47:32 10° NW 20:51:07 24° N 20:54:42 10° ENE visible
06 Dec - 22:28:51 10° NW 22:33:05 48° NNE 22:37:19 10° E night (unlit)
07 Dec - 00:10:15 10° WNW 00:14:15 35° SW 00:18:16 10° SSE night (unlit)
07 Dec - 15:54:54 10° SSW 15:58:37 27° SE 16:02:18 10° ENE daylight
07 Dec - 17:35:19 10° WSW 17:39:39 59° NNW 17:43:57 10° NE visible
07 Dec - 19:17:51 10° WNW 19:21:30 25° N 19:25:09 10° NE visible
07 Dec - 20:59:56 10° NW 21:03:42 28° NNE 21:07:28 10° ENE night (unlit)
07 Dec - 22:41:03 10° NW 22:45:25 78° NNE 22:49:49 10° ESE night (unlit)
08 Dec - 00:23:09 10° W 00:26:17 19° SW 00:29:25 10° S night (unlit)
08 Dec - 16:06:27 10° SW 16:10:42 50° SE 16:14:55 10° ENE daylight
08 Dec - 17:47:55 10° W 17:52:02 39° NNW 17:56:08 10° NE visible
08 Dec - 19:30:33 10° NW 19:34:06 24° N 19:37:39 10° NE visible
08 Dec - 21:12:11 10° NW 21:16:12 35° NNE 21:20:14 10° E night (unlit)
08 Dec - 22:53:21 10° WNW 22:57:38 61° SW 23:01:57 10° SE night (unlit)
09 Dec - 14:39:28 10° S 14:42:06 16° SE 14:44:45 10° E daylight
09 Dec - 16:18:28 10° SW 16:22:52 89° SSE 16:27:15 10° ENE daylight
09 Dec - 18:00:39 10° WNW 18:04:30 30° NNW 18:08:21 10° NE visible
09 Dec - 19:43:05 10° NW 19:46:41 24° N 19:50:16 10° ENE visible
09 Dec - 21:24:22 10° NW 21:28:37 51° NNE 21:32:52 10° ESE night (unlit)
09 Dec - 23:05:50 10° WNW 23:09:45 33° SW 23:13:40 10° SSE night (unlit)
10 Dec - 14:50:15 10° SSW 14:54:04 29° SE 14:57:53 10° ENE daylight
10 Dec - 16:30:50 10° WSW 16:35:09 56° NNW 16:39:27 10° NE daylight
10 Dec - 18:13:24 10° WNW 18:17:02 25° N 18:20:40 10° NE visible
10 Dec - 19:55:26 10° NW 19:59:14 28° NNE 20:03:01 10° ENE visible
10 Dec - 21:36:33 10° WNW 21:40:55 83° NNE 21:45:17 10° ESE night (unlit)
10 Dec - 23:18:48 10° W 23:21:43 18° SW 23:24:40 10° S night (unlit)
11 Dec - 15:01:50 10° SW 15:06:08 54° SE 15:10:24 10° ENE daylight
11 Dec - 16:43:25 10° W 16:47:31 38° NNW 16:51:36 10° NE daylight
11 Dec - 18:26:03 10° NW 18:29:36 24° N 18:33:08 10° NE visible
11 Dec - 20:07:38 10° NW 20:11:42 37° NNE 20:15:44 10° E visible
11 Dec - 21:48:49 10° WNW 21:53:05 56° SW 21:57:22 10° SE night (unlit)
12 Dec - 13:34:36 10° S 13:37:29 17° SE 13:40:23 10° E daylight
12 Dec - 15:13:52 10° WSW 15:18:18 86° NNW 15:22:41 10° ENE daylight
12 Dec - 16:56:07 10° WNW 16:59:58 29° NNW 17:03:48 10° NE daylight
12 Dec - 18:38:31 10° NW 18:42:09 25° N 18:45:45 10° ENE visible
12 Dec - 20:19:47 10° NW 20:24:04 54° NNE 20:28:19 10° ESE visible
12 Dec - 22:01:19 10° WNW 22:05:08 30° SW 22:08:58 10° SSE night (unlit)
